| time (UTC) | temp F | wind direction | speed MPH | gust MPH | rain 1hr in | rain 24hr in | rain mn in | humidity % | barometer mb |
| 20260502170501 | 70 | 137 | 0.0 | 3.0 | 0.00 | 0.00 | 0.00 | 39 | 1020.4 |
| 20260502163450 | 77 | 155 | 2.0 | 3.0 | 0.00 | 0.00 | 0.00 | 33 | 1020.5 |
| 20260502162450 | 76 | 226 | 1.0 | 2.0 | 0.00 | 0.00 | 0.00 | 35 | 1020.6 |
| 20260502161449 | 76 | 266 | 2.0 | 3.0 | 0.00 | 0.00 | 0.00 | 34 | 1020.5 |
| 20260502160448 | 76 | 149 | 2.0 | 3.0 | 0.00 | 0.00 | 0.00 | 37 | 1020.6 |
| 20260502150449 | 76 | 169 | 3.0 | 6.0 | 0.00 | 0.00 | 0.00 | 32 | 1021.2 |
| 20260502130447 | 79 | 68 | 0.0 | 6.0 | 0.00 | 0.00 | 0.00 | 35 | 1022.4 |
| 20260502123447 | 76 | 157 | 3.0 | 7.0 | 0.00 | 0.00 | 0.00 | 37 | 1022.8 |
| 20260502121448 | 74 | 141 | 1.0 | 7.0 | 0.00 | 0.00 | 0.00 | 41 | 1023.0 |
| 20260502120449 | 77 | 149 | 0.0 | 6.0 | 0.00 | 0.00 | 0.00 | 37 | 1023.2 |
| 20260502114449 | 75 | 157 | 0.0 | 6.0 | 0.00 | 0.00 | 0.00 | 36 | 1023.5 |
| 20260502113447 | 76 | 89 | 1.0 | 4.0 | 0.00 | 0.00 | 0.00 | 37 | 1023.5 |
| 20260502110501 | 74 | 145 | 0.0 | 6.0 | 0.00 | 0.00 | 0.00 | 39 | 1023.9 |
| 20260502104447 | 73 | 147 | 2.0 | 4.0 | 0.00 | 0.00 | 0.00 | 39 | 1024.1 |
| 20260502103450 | 72 | 71 | 0.0 | 6.0 | 0.00 | 0.00 | 0.00 | 43 | 1024.4 |
| 20260502102449 | 72 | 131 | 2.0 | 7.0 | 0.00 | 0.00 | 0.00 | 38 | 1024.4 |
| 20260502101447 | 72 | 134 | 1.0 | 3.0 | 0.00 | 0.00 | 0.00 | 43 | 1024.4 |
| 20260502100449 | 73 | 234 | 1.0 | 6.0 | 0.00 | 0.00 | 0.00 | 39 | 1024.4 |
| 20260502091447 | 71 | 174 | 1.0 | 4.0 | 0.00 | 0.00 | 0.00 | 38 | 1025.0 |
| 20260502090449 | 71 | 174 | 1.0 | 6.0 | 0.00 | 0.00 | 0.00 | 37 | 1025.1 |
| 20260502071447 | 64 | 171 | 1.0 | 3.0 | 0.00 | 0.00 | 0.00 | 55 | 1025.5 |
| 20260502070449 | 64 | 154 | 2.0 | 4.0 | 0.00 | 0.00 | 0.00 | 56 | 1025.6 |
| 20260502065447 | 62 | 116 | 1.0 | 6.0 | 0.00 | 0.00 | 0.00 | 61 | 1025.5 |
| 20260502064447 | 62 | 118 | 2.0 | 6.0 | 0.00 | 0.00 | 0.00 | 59 | 1025.5 |
| 20260502063447 | 61 | 117 | 4.0 | 4.0 | 0.00 | 0.00 | 0.00 | 60 | 1025.2 |
| 20260502061449 | 60 | 149 | 0.0 | 3.0 | 0.00 | 0.00 | 0.00 | 64 | 1025.4 |
| 20260502060446 | 60 | 141 | 0.0 | 3.0 | 0.00 | 0.00 | 0.00 | 60 | 1025.3 |
| 20260502053447 | 56 | 126 | 0.0 | 1.0 | 0.00 | 0.00 | 0.00 | 68 | 1025.4 |
| 20260502051447 | 53 | 129 | 0.0 | 1.0 | 0.00 | 0.00 | 0.00 | 80 | 1025.7 |
| 20260502045451 | 43 | 132 | 0.0 | 0.0 | 0.00 | 0.00 | 0.00 | 99 | 1025.4 |
| 20260502044448 | 42 | 133 | 0.0 | 1.0 | 0.00 | 0.00 | 0.00 | 99 | 1025.6 |
| 20260502043449 | 39 | 136 | 0.0 | 1.0 | 0.00 | 0.00 | 0.00 | 99 | 1025.6 |
| 20260502042448 | 38 | 133 | 0.0 | 1.0 | 0.00 | 0.00 | 0.00 | 99 | 1025.4 |
| 20260502041449 | 37 | 136 | 0.0 | 1.0 | 0.00 | 0.00 | 0.00 | 99 | 1025.3 |
| 20260502040448 | 37 | 135 | 0.0 | 0.0 | 0.00 | 0.00 | 0.00 | 99 | 1025.4 |
| 20260502035449 | 36 | 135 | 0.0 | 1.0 | 0.00 | 0.00 | 0.00 | 99 | 1025.3 |
| 20260502034450 | 36 | 136 | 0.0 | 1.0 | 0.00 | 0.00 | 0.00 | 99 | 1025.3 |
| 20260502033451 | 35 | 136 | 0.0 | 0.0 | 0.00 | 0.00 | 0.00 | 99 | 1025.4 |
| 20260502032455 | 35 | 136 | 0.0 | 1.0 | 0.00 | 0.00 | 0.00 | 99 | 1025.4 |
| 20260502031448 | 35 | 142 | 0.0 | 1.0 | 0.00 | 0.00 | 0.00 | 99 | 1025.3 |
| 20260502030449 | 35 | 136 | 0.0 | 1.0 | 0.00 | 0.00 | 0.00 | 99 | 1025.1 |
| 20260502025437 | 36 | 134 | 0.0 | 1.0 | 0.00 | 0.00 | 0.00 | 99 | 1025.3 |
| 20260502023437 | 35 | 134 | 0.0 | 0.0 | 0.00 | 0.00 | 0.00 | 99 | 1025.4 |
| 20260502022436 | 36 | 134 | 0.0 | 0.0 | 0.00 | 0.00 | 0.00 | 99 | 1025.4 |
| 20260502021437 | 36 | 134 | 0.0 | 0.0 | 0.00 | 0.00 | 0.00 | 99 | 1025.6 |
| 20260502020437 | 36 | 134 | 0.0 | 1.0 | 0.00 | 0.00 | 0.00 | 99 | 1025.4 |
| 20260502015439 | 36 | 135 | 0.0 | 0.0 | 0.00 | 0.00 | 0.00 | 99 | 1025.5 |
| 20260502014436 | 37 | 135 | 0.0 | 0.0 | 0.00 | 0.00 | 0.00 | 99 | 1025.4 |
| 20260502013436 | 37 | 135 | 0.0 | 1.0 | 0.00 | 0.00 | 0.00 | 99 | 1025.3 |
| 20260502012439 | 37 | 135 | 0.0 | 1.0 | 0.00 | 0.00 | 0.00 | 99 | 1025.6 |
| 20260502011437 | 36 | 135 | 0.0 | 0.0 | 0.00 | 0.00 | 0.00 | 98 | 1025.5 |
| 20260502010437 | 37 | 135 | 0.0 | 0.0 | 0.00 | 0.00 | 0.00 | 98 | 1025.7 |
| 20260502004437 | 37 | 135 | 0.0 | 0.0 | 0.00 | 0.00 | 0.00 | 98 | 1025.5 |
| 20260502003436 | 37 | 135 | 0.0 | 1.0 | 0.00 | 0.00 | 0.00 | 98 | 1025.7 |
| 20260502002436 | 38 | 135 | 0.0 | 0.0 | 0.00 | 0.00 | 0.00 | 97 | 1025.4 |
| 20260502001438 | 38 | 135 | 0.0 | 0.0 | 0.00 | 0.00 | 0.00 | 97 | 1025.8 |
| 20260502000439 | 38 | 135 | 0.0 | 0.0 | 0.00 | 0.00 | 0.00 | 97 | 1025.3 |
| 20260501235438 | 39 | 135 | 0.0 | 1.0 | 0.00 | 0.00 | 0.00 | 97 | 1025.5 |
| 20260501234437 | 38 | 135 | 0.0 | 0.0 | 0.00 | 0.00 | 0.00 | 97 | 1025.4 |
| 20260501233438 | 38 | 135 | 0.0 | 0.0 | 0.00 | 0.00 | 0.00 | 97 | 1025.7 |
| 20260501232439 | 39 | 135 | 0.0 | 0.0 | 0.00 | 0.00 | 0.00 | 96 | 1025.7 |
| 20260501231436 | 39 | 135 | 0.0 | 1.0 | 0.00 | 0.00 | 0.00 | 96 | 1025.8 |
| 20260501230452 | 39 | 139 | 0.0 | 0.0 | 0.00 | 0.00 | 0.00 | 96 | 1025.8 |
| 20260501224436 | 39 | 134 | 0.0 | 0.0 | 0.00 | 0.00 | 0.00 | 95 | 1025.7 |
| 20260501222440 | 40 | 134 | 0.0 | 1.0 | 0.00 | 0.00 | 0.00 | 94 | 1025.5 |
| 20260501221438 | 40 | 138 | 0.0 | 0.0 | 0.00 | 0.00 | 0.00 | 94 | 1025.9 |
| 20260501220436 | 40 | 139 | 0.0 | 0.0 | 0.00 | 0.00 | 0.00 | 93 | 1025.8 |
| 20260501214436 | 42 | 138 | 0.0 | 0.0 | 0.00 | 0.00 | 0.00 | 91 | 1025.9 |
| 20260501212439 | 42 | 133 | 0.0 | 0.0 | 0.00 | 0.00 | 0.00 | 91 | 1025.6 |
| 20260501211436 | 42 | 133 | 0.0 | 0.0 | 0.00 | 0.00 | 0.00 | 90 | 1025.9 |
| 20260501210437 | 43 | 133 | 0.0 | 0.0 | 0.00 | 0.00 | 0.00 | 89 | 1025.7 |
| 20260501205438 | 43 | 133 | 0.0 | 0.0 | 0.00 | 0.00 | 0.00 | 88 | 1025.9 |
| 20260501204436 | 44 | 133 | 0.0 | 0.0 | 0.00 | 0.00 | 0.00 | 89 | 1025.8 |
| 20260501202436 | 44 | 133 | 0.0 | 0.0 | 0.00 | 0.00 | 0.00 | 85 | 1025.7 |
| 20260501201438 | 45 | 133 | 0.0 | 0.0 | 0.00 | 0.00 | 0.00 | 85 | 1025.7 |
| 20260501200436 | 45 | 133 | 0.0 | 0.0 | 0.00 | 0.00 | 0.00 | 83 | 1025.6 |
| 20260501195436 | 46 | 133 | 0.0 | 0.0 | 0.00 | 0.00 | 0.00 | 83 | 1025.9 |
| 20260501194436 | 46 | 133 | 0.0 | 1.0 | 0.00 | 0.00 | 0.00 | 82 | 1025.9 |
| 20260501193436 | 46 | 133 | 0.0 | 0.0 | 0.00 | 0.00 | 0.00 | 80 | 1025.8 |
| 20260501192437 | 48 | 134 | 0.0 | 0.0 | 0.00 | 0.00 | 0.00 | 78 | 1025.8 |
| 20260501191436 | 49 | 133 | 0.0 | 1.0 | 0.00 | 0.00 | 0.00 | 75 | 1025.7 |
| 20260501190439 | 49 | 133 | 0.0 | 1.0 | 0.00 | 0.00 | 0.00 | 75 | 1025.8 |
| 20260501183437 | 52 | 145 | 0.0 | 0.0 | 0.00 | 0.00 | 0.00 | 68 | 1025.4 |
| 20260501182437 | 54 | 150 | 0.0 | 0.0 | 0.00 | 0.00 | 0.00 | 64 | 1025.5 |
| 20260501180448 | 58 | 151 | 0.0 | 0.0 | 0.00 | 0.00 | 0.00 | 57 | 1025.1 |
| 20260501175437 | 59 | 139 | 0.0 | 0.0 | 0.00 | 0.00 | 0.00 | 54 | 1025.4 |
| 20260501174440 | 61 | 139 | 0.0 | 0.0 | 0.00 | 0.00 | 0.00 | 49 | 1025.3 |
| 20260501173436 | 63 | 125 | 0.0 | 1.0 | 0.00 | 0.00 | 0.00 | 47 | 1025.0 |
| 20260501172439 | 64 | 121 | 0.0 | 2.0 | 0.00 | 0.00 | 0.00 | 45 | 1025.0 |